Weather Roundup
Issued by NWS Chicago, IL

Home | Current Version | Previous Version | Text Only | Print | Product List | Glossary Off
Versions: 1 2 3 4 5 6 7 8 9 10 11 12 13 14 15 16 17 18 19 20 21 22 23 24 25 26 27 28 29 30 31 32 33 34 35 36 37 38 39 40 41 42 43 44 45 46 47 48 49 50

000
NZUS59 KLOT 300203
HRRLOT

CHICAGO AREA WEATHER ROUNDUP
NATIONAL WEATHER SERVICE CHICAGO/ROMEOVILLE IL
900 PM CDT THU SEP 29 2016

NOTE: "FAIR" INDICATES FEW OR NO CLOUDS BELOW 12,000 FEET WITH NO
SIGNIFICANT WEATHER AND/OR OBSTRUCTIONS TO VISIBILITY.

* THESE STATIONS ARE NOT UNDER NWS QUALITY CONTROL. THEY ALSO MAY NOT
  REPORT WEATHER SUCH AS PRECIPITATION OR FOG.

ILZ005-006-012>014-019>023-300300-
NORTHEAST ILLINOIS

CITY           SKY/WX    TMP DP  RH WIND       PRES   REMARKS
OHARE          CLOUDY    63  57  81 NE13      30.23S
MIDWAY         CLOUDY    64  57  78 NE16      30.21F
AURORA         CLOUDY    63  58  83 N7        30.23S
LANSING*       CLOUDY    62  59  90 NE10G17   30.21S
WAUKEGAN       CLOUDY    63  57  81 NE12G18   30.25S
DUPAGE AIRPORT CLOUDY    62  57  83 N10       30.23S
WHEELING       CLOUDY    63  57  81 NE12      30.25S
KANKAKEE*      CLOUDY    61  58  90 N9G16     30.19S
NORTHERLY ISL    N/A     62  57  83 NE15        N/A
$$

WIZ051-052-058>065-066-070>072-300300-
SOUTHEAST WISCONSIN

CITY           SKY/WX    TMP DP  RH WIND       PRES   REMARKS
MILWAUKEE      CLOUDY    62  58  86 N16G24    30.27F
KENOSHA*       CLOUDY    61  58  90 N7        30.27S
RACINE*        CLOUDY    59  57  93 N9        30.28S
WAUKESHA       PTCLDY    59  55  88 NE10G16   30.30R
WEST BEND      MOCLDY    64  63  94 NE10      30.30S
$$

INZ001>003-010>013-019-020-300300-
NORTHWEST INDIANA

CITY           SKY/WX    TMP DP  RH WIND       PRES   REMARKS
GARY*          CLOUDY    64  59  82 NE12G23   30.21S
MICHIGAN CITY* NOT AVBL
RENSSELAER*    NOT AVBL
VALPARAISO     CLOUDY    61  57  87 N8        30.19S
$$

LMZ740>746-300300-
SOUTHERN LAKE MICHIGAN

STATION/POSITION TIME  SKY/WX   TEMP WIND        PRES    VSBY
                                AIR  DIR/SP/G
                 (UTC)          (F)  (DEG/KT/KT) (MB)    (MI)
HARRISON CRIB    0140            64   50/ 21/ 22   N/A
BURNHAM HARBOR   0200            62   40/ 12/ 19   N/A
CALUMET HARBOR   0130            63   30/ 12/ 18 1022.6S
BURNS HARBOR     0140            62   50/ 18/ 21 1022.7S
MICHIGAN CITY    0140            61   20/ 20/ 21   N/A
$$

ABBREVIATIONS USED IN REMARKS
   TC - TEMPERATURE IN CELSIUS
  WCI - WIND CHILL INDEX
   HX - HEAT INDEX
  VSB - VISIBILITY
$$




USA.gov is the U.S. government's official web portal to all federal, state and local government web resources and services.